Weather History for Pittsfield, IL

Change the Weather History Date:

Sunday, January 1, 2006

  Actual Average (KUIN) Record (KUIN)
Temperature  
Mean Temperature 44 °F 27 °F  
Max Temperature 53 °F 34 °F 60 °F (1905)
Min Temperature 35 °F 19 °F -13 °F (1974)
Degree Days  
Heating Degree Days 21 38  
Month to date heating degree days 38  
Since 1 July heating degree days 2229  
Cooling Degree Days 0 0  
Month to date cooling degree days 0  
Year to date cooling degree days 0  
Moisture  
Dew Point 39 °F    
Average Humidity 84    
Maximum Humidity 94    
Minimum Humidity 76    
Precipitation  
Precipitation 0.00 in 0.06 in 3.38 in (1965)
Sea Level Pressure  
Sea Level Pressure 29.67 in    
Wind  
Wind Speed 8 mph (ESE)    
Max Wind Speed 14 mph    
Max Gust Speed 18 mph    
Visibility 9 miles    
Events      
T = Trace of Precipitation, MM = Missing Value Source: NWS Daily Summary

Daily Weather History Graph

Daily Weather History Graph

Search for Another Location

Airport:

Trip Planner

Search our weather history database for the weather conditions in past years. The results will help you decide how hot, cold, wet, or windy it might be!

Date:

Astronomy

Jan. 01, 2006 Rise Set
Actual Time 7:23 AM CST 4:49 PM CST
Civil Twilight 6:53 AM CST 5:19 PM CST
Nautical Twilight 6:20 AM CST 5:53 PM CST
Astronomical Twilight 5:47 AM CST 6:26 PM CST
Moon 9:08 AM CST (1/1) 6:40 PM CST (1/1)
Length of Visible Light 10h 26m
Length of Day
9h 25m
Waxing Crescent, 4% of the Moon is Illuminated
Jan 1
Waxing Crescent
Jan 6
First Quarter
Jan 14
Full
Jan 22
Last Quarter
Jan 29
New

Hourly Weather History & Observations

Time (CST) Temp. Windchill Dew Point Humidity Pressure Visibility Wind Dir Wind Speed Gust Speed Precip Events Conditions
12:02 AM 35.6 °F 30.7 °F 30.2 °F 81% 29.82 in 10.0 mi ESE 5.8 mph - N/A   Clear
12:22 AM 35.6 °F 29.9 °F 32.0 °F 87% 29.81 in 10.0 mi ESE 6.9 mph - N/A   Clear
12:42 AM 35.6 °F 29.9 °F 32.0 °F 87% 29.80 in 10.0 mi ESE 6.9 mph - N/A   Clear
1:02 AM 35.6 °F 29.9 °F 32.0 °F 87% 29.79 in 10.0 mi ESE 6.9 mph - N/A   Clear
1:23 AM 35.6 °F 29.9 °F 32.0 °F 87% 29.80 in 10.0 mi ESE 6.9 mph - N/A   Clear
1:43 AM 35.6 °F 30.7 °F 32.0 °F 87% 29.78 in 10.0 mi ESE 5.8 mph - N/A   Clear
2:02 AM 35.6 °F 31.7 °F 32.0 °F 87% 29.80 in 10.0 mi ESE 4.6 mph - N/A   Clear
2:22 AM 35.6 °F 30.7 °F 32.0 °F 87% 29.79 in 10.0 mi ESE 5.8 mph - N/A   Clear
2:43 AM 35.6 °F 30.7 °F 32.0 °F 87% 29.79 in 10.0 mi ESE 5.8 mph - N/A   Clear
3:02 AM 35.6 °F 29.9 °F 32.0 °F 87% 29.78 in 10.0 mi ESE 6.9 mph - N/A   Clear
3:24 AM 35.6 °F 29.2 °F 32.0 °F 87% 29.77 in 10.0 mi ESE 8.1 mph - N/A   Clear
3:42 AM 35.6 °F 29.9 °F 32.0 °F 87% 29.76 in 10.0 mi ESE 6.9 mph - N/A   Clear
4:02 AM 37.4 °F 32.8 °F 33.8 °F 87% 29.76 in 10.0 mi ESE 5.8 mph - N/A   Clear
4:22 AM 37.4 °F 32.8 °F 33.8 °F 87% 29.75 in 10.0 mi ESE 5.8 mph - N/A   Clear
4:42 AM 37.4 °F 32.1 °F 33.8 °F 87% 29.73 in 10.0 mi ESE 6.9 mph - N/A   Clear
5:02 AM 37.4 °F 32.8 °F 33.8 °F 87% 29.74 in 10.0 mi ESE 5.8 mph - N/A   Clear
5:22 AM 37.4 °F 32.1 °F 32.0 °F 81% 29.73 in 10.0 mi ESE 6.9 mph - N/A   Clear
5:42 AM 35.6 °F 29.2 °F 33.8 °F 93% 29.73 in 10.0 mi ESE 8.1 mph - N/A   Clear
6:02 AM 37.4 °F 30.8 °F 33.8 °F 87% 29.72 in 10.0 mi ESE 9.2 mph - N/A   Clear
6:22 AM 37.4 °F 30.8 °F 33.8 °F 87% 29.72 in 10.0 mi ESE 9.2 mph - N/A   Clear
6:42 AM 37.4 °F 31.4 °F 33.8 °F 87% 29.72 in 10.0 mi ESE 8.1 mph - N/A   Clear
7:02 AM 37.4 °F 32.1 °F 33.8 °F 87% 29.72 in 10.0 mi ESE 6.9 mph - N/A   Clear
7:22 AM 37.4 °F 31.4 °F 33.8 °F 87% 29.72 in 10.0 mi ESE 8.1 mph - N/A   Clear
7:44 AM 37.4 °F 32.1 °F 33.8 °F 87% 29.71 in 10.0 mi East 6.9 mph - N/A   Clear
8:02 AM 37.4 °F 32.1 °F 33.8 °F 87% 29.71 in 10.0 mi East 6.9 mph - N/A   Clear
8:22 AM 39.2 °F 34.2 °F 33.8 °F 81% 29.70 in 10.0 mi East 6.9 mph - N/A   Clear
8:42 AM 39.2 °F 33.6 °F 33.8 °F 81% 29.69 in 10.0 mi East 8.1 mph - N/A   Clear
9:04 AM 39.2 °F 32.5 °F 35.6 °F 87% 29.69 in 10.0 mi ESE 10.4 mph - N/A   Clear
9:22 AM 41.0 °F 34.3 °F 35.6 °F 81% 29.70 in 10.0 mi ESE 11.5 mph - N/A   Scattered Clouds
9:42 AM 42.8 °F 36.6 °F 35.6 °F 76% 29.70 in 10.0 mi ESE 11.5 mph - N/A   Mostly Cloudy
10:02 AM 44.6 °F 38.4 °F 37.4 °F 76% 29.69 in 10.0 mi ESE 12.7 mph - N/A   Mostly Cloudy
10:22 AM 44.6 °F 38.4 °F 37.4 °F 76% 29.68 in 10.0 mi ESE 12.7 mph - N/A   Overcast
10:42 AM 46.4 °F 41.1 °F 39.2 °F 76% 29.67 in 10.0 mi ESE 11.5 mph - N/A   Overcast
11:02 AM 46.4 °F 41.1 °F 39.2 °F 76% 29.65 in 10.0 mi ESE 11.5 mph - N/A   Mostly Cloudy
11:22 AM 46.4 °F 41.5 °F 41.0 °F 81% 29.65 in 10.0 mi ESE 10.4 mph 18.4 mph N/A   Mostly Cloudy
11:42 AM 48.2 °F - 42.8 °F 82% 29.63 in 10.0 mi ESE 11.5 mph - N/A   Overcast
12:02 PM 48.2 °F - 42.8 °F 82% 29.60 in 10.0 mi ESE 12.7 mph - N/A   Overcast
12:22 PM 48.2 °F - 42.8 °F 82% 29.59 in 10.0 mi ESE 12.7 mph - N/A   Overcast
12:42 PM 48.2 °F - 42.8 °F 82% 29.59 in 10.0 mi ESE 10.4 mph - N/A   Overcast
1:02 PM 48.2 °F - 44.6 °F 87% 29.57 in 10.0 mi ESE 11.5 mph - N/A   Overcast
1:22 PM 48.2 °F - 44.6 °F 87% 29.56 in 10.0 mi ESE 10.4 mph - N/A   Overcast
1:42 PM 51.8 °F - 46.4 °F 82% 29.55 in 10.0 mi ESE 13.8 mph - N/A   Overcast
2:02 PM 51.8 °F - 46.4 °F 82% 29.54 in 10.0 mi ESE 8.1 mph - N/A   Overcast
2:22 PM 51.8 °F - 46.4 °F 82% 29.55 in 7.0 mi ESE 9.2 mph - N/A   Overcast
2:44 PM 53.6 °F - 46.4 °F 77% 29.55 in 7.0 mi ESE 11.5 mph - N/A   Overcast
3:02 PM 53.6 °F - 48.2 °F 82% 29.55 in 7.0 mi ESE 8.1 mph - N/A   Overcast
3:22 PM 53.6 °F - 48.2 °F 82% 29.55 in 7.0 mi East 5.8 mph - N/A   Overcast
3:42 PM 53.6 °F - 48.2 °F 82% 29.54 in 7.0 mi ESE 8.1 mph - N/A   Scattered Clouds
4:04 PM 53.6 °F - 48.2 °F 82% 29.54 in 7.0 mi ESE 10.4 mph - N/A   Scattered Clouds
4:22 PM 53.6 °F - 48.2 °F 82% 29.54 in 7.0 mi ESE 9.2 mph - N/A   Mostly Cloudy
4:42 PM 51.8 °F - 48.2 °F 88% 29.54 in 5.0 mi ESE 10.4 mph - N/A   Mostly Cloudy
5:02 PM 53.6 °F - 48.2 °F 82% 29.54 in 7.0 mi East 8.1 mph - N/A   Scattered Clouds
5:22 PM 53.6 °F - 48.2 °F 82% 29.54 in 7.0 mi East 8.1 mph - N/A   Overcast
5:45 PM 53.6 °F - 48.2 °F 82% 29.55 in 7.0 mi ESE 9.2 mph - N/A   Overcast
6:04 PM 53.6 °F - 48.2 °F 82% 29.54 in 7.0 mi ESE 8.1 mph - N/A   Mostly Cloudy
6:24 PM 51.8 °F - 50.0 °F 94% 29.54 in 7.0 mi ESE 8.1 mph - N/A   Mostly Cloudy
6:44 PM 51.8 °F - 50.0 °F 94% 29.54 in 5.0 mi ESE 9.2 mph - N/A   Overcast
7:05 PM 53.6 °F - 51.8 °F 94% 29.53 in 5.0 mi ESE 8.1 mph - N/A   Mostly Cloudy
7:24 PM 53.6 °F - 51.8 °F 94% 29.54 in 5.0 mi ESE 10.4 mph - N/A   Scattered Clouds
7:44 PM 53.6 °F - 51.8 °F 94% 29.55 in 5.0 mi ESE 6.9 mph - N/A   Scattered Clouds
8:04 PM 53.6 °F - 51.8 °F 94% 29.55 in 5.0 mi ESE 6.9 mph - N/A   Overcast
8:25 PM 53.6 °F - 51.8 °F 94% 29.54 in 5.0 mi ESE 6.9 mph - N/A   Overcast
8:44 PM 53.6 °F - 51.8 °F 94% 29.54 in 5.0 mi ESE 8.1 mph - N/A   Overcast
9:03 PM 53.6 °F - 53.6 °F 100% 29.53 in 5.0 mi East 8.1 mph - N/A   Overcast
9:24 PM 55.4 °F - 53.6 °F 94% 29.52 in 5.0 mi East 8.1 mph - N/A   Overcast
9:44 PM 53.6 °F - 53.6 °F 100% 29.52 in 5.0 mi East 9.2 mph - N/A   Mostly Cloudy
10:04 PM 53.6 °F - 53.6 °F 100% 29.52 in 4.0 mi ESE 8.1 mph - N/A   Scattered Clouds
10:24 PM 53.6 °F - 53.6 °F 100% 29.51 in 4.0 mi ESE 6.9 mph - N/A   Scattered Clouds
10:44 PM 53.6 °F - 53.6 °F 100% 29.51 in 4.0 mi ESE 8.1 mph - N/A   Scattered Clouds
11:03 PM 55.4 °F - 53.6 °F 94% 29.50 in 4.0 mi ESE 8.1 mph - N/A   Clear
11:22 PM 53.6 °F - 53.6 °F 100% 29.49 in 4.0 mi ESE 8.1 mph - N/A   Clear
11:42 PM 53.6 °F - 53.6 °F 100% 29.49 in 3.0 mi ESE 6.9 mph - N/A   Clear